Location: Nantong Television Tower
(32.0188°N, 120.8512°E)
Time: 19:16:36
(UTC+08:00)

Vanguard 3 - Visible Passes

Search period start: 01 September 2014 00:00
Search period end: 11 September 2014 00:00
Orbit: 508 x 3279 km, 33.4° (Epoch: 01 September)

Date Brightness Start Highest point End Pass type
(mag) Time Alt. Az. Time Alt. Az. Time Alt. Az.
01 Sep 8.5 20:01:14 10° WNW 20:14:43 67° SSW 20:18:07 40° SE visible
01 Sep 10.1 22:20:23 10° W 22:22:52 15° WSW 22:22:52 15° WSW visible
02 Sep 9.1 18:45:26 10° WNW 19:01:51 85° SSW 19:10:15 13° ESE visible
02 Sep 9.0 21:04:12 10° W 21:14:38 37° SW 21:15:00 37° SW visible
03 Sep 8.9 19:48:26 10° WNW 20:02:38 60° SSW 20:07:09 32° SE visible
03 Sep 10.2 22:08:45 10° W 22:11:54 14° WSW 22:11:54 14° WSW visible
04 Sep 9.3 18:32:32 10° WNW 18:49:43 79° SSW 18:59:21 10° ESE visible
04 Sep 9.3 20:51:42 10° W 21:02:24 33° SW 21:04:05 31° SSW visible
05 Sep 9.3 19:35:36 10° WNW 19:50:24 54° SSW 19:56:18 24° SSE visible
05 Sep 10.3 21:57:30 10° WSW 22:01:03 13° SW 22:01:03 13° SW visible
06 Sep 9.5 18:19:37 10° WNW 18:37:26 74° SSW 18:47:49 10° ESE visible
06 Sep 9.6 20:39:15 10° W 20:50:03 29° SW 20:53:18 24° SSW visible
07 Sep 9.7 19:22:47 10° WNW 19:38:01 49° SW 19:45:36 17° SSE visible
07 Sep 10.5 21:47:32 10° WSW 21:48:57 10° SW 21:50:18 10° SW visible
08 Sep 9.9 20:26:53 10° W 20:37:34 25° SW 20:42:41 17° S visible
09 Sep 10.0 19:09:59 10° WNW 19:25:29 44° SW 19:35:03 10° SSE visible
10 Sep 10.3 20:14:40 10° W 20:24:58 22° SW 20:32:13 10° S visible
